Date String (YYYY-MM-DD hh:mm:ss) UTC,Instrument flags,absolute air pressure of the measurement (hPa),sample flow rate (lpm),inlet stack bypass flow (lpm),air temperature of the measurement (°C),ambient temperature measured by the external sensor (°C),aerosol sample conditioner tube jacket temperature (°C),OPC LED temperature (°C),internal box temperature (°C),relative humidity of the measurement (%),span deviation,mass concentration of particles derived from Lorenz-Mie calculation of OPC scattering (μg/m³),mass concentration of particles derived from Lorenz-Mie calculation of OPC scattering (μg/m³),mass concentration of particles derived from Lorenz-Mie calculation of OPC scattering (μg/m³)
DateTimeUTC,F1_M11,P_M11,Q1_M11,Q2_M11,T1_M11,T2_M11,T3_M11,T4_M11,T5_M11,U1_M11,ZSPAN_M11,X0_M11,X2_M11,X1_M11
2023-12-17 13:00:00,SystemResetWarning,0830.5,5.01,000.00,022.7,021.7,000.0,030.9,024.0,6.0,0000.0,0000.43,0000.34,0000.31
2023-12-17 13:01:00,SystemResetWarning,0830.5,5.00,000.00,022.7,021.7,000.0,030.9,024.1,6.1,0000.0,0000.46,0000.35,0000.31
2023-12-17 13:02:00,SystemResetWarning,0830.5,4.98,000.00,022.7,021.7,000.0,030.9,024.0,6.0,0000.0,0000.49,0000.37,0000.32
2023-12-17 13:03:00,SystemResetWarning,0830.6,5.01,000.00,022.7,021.7,000.0,030.9,024.0,6.1,0000.0,0000.50,0000.37,0000.32
2023-12-17 13:04:00,SystemResetWarning,0830.6,5.00,000.00,022.7,021.7,000.0,030.9,024.0,6.0,0000.0,0000.50,0000.37,0000.32
2023-12-17 13:05:00,SystemResetWarning,0830.5,4.99,000.00,022.7,021.7,000.0,030.9,024.0,6.0,0000.0,0000.54,0000.38,0000.31
2023-12-17 13:06:00,SystemResetWarning,0830.5,4.99,000.00,022.7,021.7,000.0,030.9,024.0,6.0,0000.0,0000.55,0000.38,0000.30
2023-12-17 13:07:00,SystemResetWarning,0830.6,5.01,000.00,022.7,021.7,000.0,030.9,024.0,6.0,0000.0,0000.58,0000.39,0000.30
2023-12-17 13:08:00,SystemResetWarning,0830.7,5.01,000.00,022.7,021.7,000.0,030.9,024.0,6.0,0000.0,0000.57,0000.38,0000.29
2023-12-17 13:09:00,SystemResetWarning,0830.6,4.99,000.00,022.6,021.7,000.0,030.9,024.0,6.0,0000.0,0000.58,0000.38,0000.29
2023-12-17 13:10:00,SystemResetWarning,0830.6,4.99,000.00,022.6,021.7,000.0,030.9,024.0,6.1,0000.0,0000.57,0000.38,0000.29
2023-12-17 13:11:00,SystemResetWarning,0830.6,5.00,000.00,022.6,021.6,000.0,030.9,023.9,6.1,0000.0,0000.55,0000.37,0000.28
2023-12-17 13:12:00,SystemResetWarning,0830.6,5.00,000.00,022.6,021.6,000.0,030.9,023.9,6.0,0000.0,0000.51,0000.36,0000.28
2023-12-17 13:13:00,SystemResetWarning,0830.6,5.00,000.00,022.6,021.6,000.0,030.9,024.0,6.3,0000.0,0000.48,0000.34,0000.27
2023-12-17 13:14:00,SystemResetWarning,0830.6,5.00,000.00,022.6,021.6,000.0,030.9,023.9,6.7,0000.0,0000.46,0000.33,0000.27
2023-12-17 13:15:00,SystemResetWarning,0830.6,5.00,000.00,022.6,021.6,000.0,030.9,023.9,6.6,0000.0,0000.47,0000.34,0000.27
2023-12-17 13:16:00,SystemResetWarning,0830.6,5.00,000.00,022.6,021.6,000.0,030.9,023.9,6.7,0000.0,0000.64,0000.33,0000.28
2023-12-17 13:17:00,SystemResetWarning,0830.6,5.00,000.00,022.6,021.6,000.0,030.9,024.0,6.6,0000.0,0001.13,0000.33,0000.28
2023-12-17 13:18:00,SystemResetWarning,0830.7,5.00,000.00,022.6,021.6,000.0,030.9,024.0,6.4,0000.0,0001.14,0000.32,0000.28
2023-12-17 13:19:00,SystemResetWarning,0830.6,4.98,000.00,022.6,021.6,000.0,030.9,024.0,6.7,0000.0,0001.18,0000.34,0000.28
2023-12-17 13:20:00,SystemResetWarning,0830.6,5.00,000.00,022.6,021.6,000.0,030.9,024.0,6.5,0000.0,0001.24,0000.37,0000.28
2023-12-17 13:21:00,SystemResetWarning,0830.6,5.01,000.00,022.6,021.6,000.0,030.9,024.0,6.5,0000.0,0001.28,0000.39,0000.28
2023-12-17 13:22:00,SystemResetWarning,0830.6,5.00,000.00,022.6,021.6,000.0,030.9,024.0,6.5,0000.0,0001.27,0000.38,0000.29
2023-12-17 13:23:00,SystemResetWarning,0830.6,4.98,000.00,022.6,021.7,000.0,030.9,024.0,6.3,0000.0,0001.28,0000.38,0000.29
2023-12-17 13:24:00,SystemResetWarning,0830.7,5.01,000.00,022.7,021.7,000.0,030.9,024.0,6.4,0000.0,0001.29,0000.38,0000.29
2023-12-17 13:25:00,SystemResetWarning,0830.7,5.01,000.00,022.7,021.7,000.0,030.9,024.1,6.8,0000.0,0001.28,0000.38,0000.29
2023-12-17 13:26:00,SystemResetWarning,0830.7,4.99,000.00,022.7,021.7,000.0,030.9,024.1,6.7,0000.0,0001.29,0000.38,0000.29
2023-12-17 13:27:00,SystemResetWarning,0830.8,4.99,000.00,022.7,021.7,000.0,030.9,024.0,6.7,0000.0,0001.31,0000.38,0000.29
2023-12-17 13:28:00,SystemResetWarning,0830.7,5.01,000.00,022.7,021.7,000.0,030.9,024.0,6.5,0000.0,0000.97,0000.39,0000.29
2023-12-17 13:29:00,SystemResetWarning,0830.7,5.01,000.00,022.7,021.7,000.0,030.9,024.0,6.4,0000.0,0000.99,0000.40,0000.29
2023-12-17 13:30:00,SystemResetWarning,0830.8,5.01,000.00,022.7,021.7,000.0,030.9,024.0,6.5,0000.0,0000.99,0000.40,0000.31
2023-12-17 13:31:00,SystemResetWarning,0830.8,5.00,000.00,022.7,021.7,000.0,030.9,024.0,6.6,0000.0,0000.97,0000.39,0000.31
2023-12-17 13:32:00,SystemResetWarning,0830.8,5.00,000.00,022.7,021.7,000.0,030.9,024.0,6.4,0000.0,0001.28,0000.37,0000.31
2023-12-17 13:33:00,SystemResetWarning,0830.9,5.00,000.00,022.6,021.7,000.0,030.9,024.0,6.3,0000.0,0001.62,0000.41,0000.31
2023-12-17 13:34:00,SystemResetWarning,0830.9,5.00,000.00,022.6,021.6,000.0,030.9,024.0,6.2,0000.0,0001.74,0000.44,0000.30
2023-12-17 13:35:00,SystemResetWarning,0830.9,5.00,000.00,022.6,021.6,000.0,030.9,024.0,6.3,0000.0,0001.76,0000.44,0000.30
2023-12-17 13:36:00,SystemResetWarning,0831.0,5.00,000.00,022.6,021.6,000.0,030.9,024.0,6.4,0000.0,0001.78,0000.45,0000.31
2023-12-17 13:37:00,SystemResetWarning,0831.0,5.01,000.00,022.6,021.6,000.0,030.9,023.9,6.4,0000.0,0001.79,0000.46,0000.31
2023-12-17 13:38:00,SystemResetWarning,0831.1,5.01,000.00,022.6,021.6,000.0,030.9,023.9,6.4,0000.0,0001.77,0000.46,0000.31
2023-12-17 13:39:00,SystemResetWarning,0831.2,4.98,000.00,022.6,021.6,000.0,030.9,024.0,6.4,0000.0,0001.43,0000.46,0000.31
2023-12-17 13:40:00,SystemResetWarning,0831.1,4.99,000.00,022.6,021.6,000.0,030.9,024.0,6.3,0000.0,0001.44,0000.46,0000.31
2023-12-17 13:41:00,SystemResetWarning,0831.1,5.00,000.00,022.6,021.6,000.0,030.9,024.0,6.3,0000.0,0001.43,0000.45,0000.30
2023-12-17 13:42:00,SystemResetWarning,0831.1,5.00,000.00,022.6,021.6,000.0,030.9,024.0,6.4,0000.0,0001.37,0000.43,0000.29
2023-12-17 13:43:00,SystemResetWarning,0831.2,5.00,000.00,022.6,021.6,000.0,030.9,024.0,6.4,0000.0,0001.09,0000.41,0000.28
2023-12-17 13:44:00,SystemResetWarning,0831.2,5.01,000.00,022.7,021.7,000.0,030.9,024.0,6.6,0000.0,0000.70,0000.39,0000.27
2023-12-17 13:45:00,SystemResetWarning,0831.2,5.00,000.00,022.7,021.7,000.0,030.9,024.1,6.9,0000.0,0000.60,0000.36,0000.27
2023-12-17 13:46:00,SystemResetWarning,0831.2,5.01,000.00,022.7,021.7,000.0,030.9,024.0,7.5,0000.0,0000.58,0000.36,0000.27
2023-12-17 13:47:00,SystemResetWarning,0831.3,5.00,000.00,022.7,021.7,000.0,030.9,024.1,7.6,0000.0,0000.57,0000.35,0000.26
2023-12-17 13:48:00,SystemResetWarning,0831.3,4.99,000.00,022.7,021.7,000.0,030.9,024.1,7.7,0000.0,0000.56,0000.35,0000.26
2023-12-17 13:49:00,SystemResetWarning,0831.3,5.00,000.00,022.7,021.7,000.0,030.9,024.1,7.5,0000.0,0000.58,0000.36,0000.27
2023-12-17 13:50:00,SystemResetWarning,0831.3,5.00,000.00,022.7,021.7,000.0,030.9,024.1,7.3,0000.0,0000.62,0000.38,0000.27
2023-12-17 13:51:00,SystemResetWarning,0831.3,5.00,000.00,022.7,021.7,000.0,030.9,024.1,7.4,0000.0,0000.72,0000.42,0000.28
2023-12-17 13:52:00,SystemResetWarning,0831.3,5.00,000.00,022.7,021.7,000.0,031.0,024.1,7.5,0000.0,0000.85,0000.47,0000.29
2023-12-17 13:53:00,SystemResetWarning,0831.3,5.00,000.00,022.7,021.7,000.0,031.0,024.1,7.5,0000.0,0000.98,0000.52,0000.30
2023-12-17 13:54:00,SystemResetWarning,0831.3,5.00,000.00,022.7,021.7,000.0,031.0,024.1,7.5,0000.0,0001.06,0000.55,0000.31
2023-12-17 13:55:00,SystemResetWarning,0831.3,5.00,000.00,022.7,021.7,000.0,031.0,024.1,7.7,0000.0,0001.06,0000.55,0000.33
2023-12-17 13:56:00,SystemResetWarning,0831.3,5.00,000.00,022.7,021.7,000.0,031.0,024.1,7.6,0000.0,0001.13,0000.58,0000.34
2023-12-17 13:57:00,SystemResetWarning,0831.3,5.00,000.00,022.7,021.7,000.0,031.0,024.1,7.6,0000.0,0001.26,0000.62,0000.35
2023-12-17 13:58:00,SystemResetWarning,0831.3,5.00,000.00,022.7,021.7,000.0,031.0,024.1,7.6,0000.0,0001.35,0000.67,0000.37
2023-12-17 13:59:00,SystemResetWarning,0831.3,5.00,000.00,022.7,021.7,000.0,031.0,024.1,7.6,0000.0,0001.58,0000.73,0000.39
